JILIN-01 GAOFEN 3D (46456 NORAD) Tracking and Keplerian Element Data

This shows tracking and keplerian element data for the satellite.

Feedback or suggestion? Click here.




ElementValue
Catalog46456
NameJILIN-01 GAOFEN 3D
Epoch Orbit128
Epoch Day267.53930814
Epoch Year2020
RAAN323.0628
Inclination97.5425
Eccentricity0.001113
Argument of Perigee261.7926
Mean Anonmoly204.0276
Mean Motion15.09256207
Decay Rate-1.3E-06
L11 46456U 20065C 20267.53930814 -.00000130 00000-0 -41876-5 0 9995
L22 46456 97.5425 323.0628 0011130 261.7926 204.0276 15.09256207 1281

Live tracking and technical data element details for JILIN-01 GAOFEN 3D (NORAD 46456). JILIN-01 GAOFEN 3D can be tracked NOW for your location showing map with azimuth and elevation plus other details from your city location.

Track the satellite on the map from your city or location and see movement details for azimuth, elevation, latitude, longitude, range, height, and movement on the map or in text.







IsCatalogInMostPopularTable: catalog: 46456, numindb: 2
Update: records affected: 1



GetName: 46456 JILIN-01 GAOFEN 3D

Hit Count: updated at: Thu, 24 Sep 2020 18:15:20 GMT